Regional Weather Roundup
Issued by NWS Glasgow, MT

Home | Current Version | Previous Version | Text Only | Print | Product List | Glossary On
Versions: 1 2 3 4 5 6 7 8 9 10 11 12 13 14 15 16 17 18 19 20 21 22 23 24 25 26 27 28 29 30 31 32 33 34 35 36 37 38 39 40 41 42 43 44 45 46 47 48 49 50
000
ASUS45 KGGW 302115
RWRGGW
HOURLY REGIONAL WEATHER ROUNDUP FOR NORTHEAST MONTANA
NATIONAL WEATHER SERVICE GLASGOW MONTANA
300 PM MDT SUN AUG 30 2015

NOTE: "FAIR" INDICATES FEW OR NO CLOUDS BELOW 12,000 FEET WITH NO
SIGNIFICANT WEATHER AND/OR OBSTRUCTIONS TO VISISBILITY.

NORTHEAST MONTANA


CITY           SKY/WX    TMP DP  RH WIND       PRES   REMARKS
GLASGOW        SUNNY     82  50  32 VRB7      29.72S
PLENTYWOOD       N/A     77  46  33 NW18G31     N/A
WOLF POINT     CLOUDY    84  53  34 SE7       29.71F
JORDAN           N/A     84  47  27 W6        29.76F
WINNETT          N/A     84  46  26 W5G14       N/A
SIDNEY         PTSUNNY   84  46  26 NW24G32   29.73S
GLENDIVE       MOSUNNY   81  48  32 N25G31    29.77S
MALTA            N/A     82  54  37 SW6G14      N/A
SCOBEY           N/A     77  52  41 NW5       29.73F
OPHEIM           N/A     75  64  69 SW8       29.43F

FORT PECK REPORTS


CITY           SKY/WX    TMP DP  RH WIND       PRES   REMARKS
FORT PECK        N/A     81  51  35 SE10G20     N/A
THE PINES        N/A     82  49  31 S6G14       N/A

SOUTHEAST MONTANA


CITY           SKY/WX    TMP DP  RH WIND       PRES   REMARKS
BILLINGS       MOSUNNY   82  47  29 SE12      29.83F
MILES CITY     PTSUNNY   84  49  29 N15       29.79F
BAKER          SUNNY     87  50  27 N16       29.80S HAZE
LIVINGSTON     SUNNY     88  31  13 SW29G37   29.80F

CENTRAL MONTANA


CITY           SKY/WX    TMP DP  RH WIND       PRES   REMARKS
HAVRE          SUNNY     80  49  33 W14G21    29.72F
LEWISTOWN      SUNNY     82  42  24 NW8       29.81F
GREAT FALLS    SUNNY     78  40  25 W18G30    29.77F
CUT BANK       SUNNY     76  31  19 SW28G40   29.75F
HELENA         PTSUNNY   78  43  28 NE8       29.78F
BUTTE          MOSUNNY   74  31  20 SW17      29.89F
BOZEMAN        MOSUNNY   79  47  32 E6        29.81F

WESTERN MONTANA


CITY           SKY/WX    TMP DP  RH WIND       PRES   REMARKS
MISSOULA       PTSUNNY   73  38  27 W13       29.85F
KALISPELL      NOT AVBL

NORTH DAKOTA


CITY           SKY/WX    TMP DP  RH WIND       PRES   REMARKS
WILLISTON      CLOUDY    86  47  25 NW21G29   29.71S
DICKINSON      NOT AVBL
MINOT          CLOUDY    90  52  27 SW13      29.63R
BISMARCK       PTSUNNY   95  61  32 S12       29.66R

SOUTHERN SASKATCHEWAN


CITY           SKY/WX    TMP DP  RH WIND       PRES   REMARKS
REGINA         PTSUNNY   66  59  77 E12       29.65F
ESTEVAN        CLOUDY    79  46  31 NW22G30   29.72S SMOKE
SWIFT CURRENT  SUNNY     77  41  27 SW18      29.68F



USA.gov is the U.S. government's official web portal to all federal, state and local government web resources and services.